User: anonymous
Location: Oshawa
(43.9000°N, 78.8670°W)
Time: 06:21:45
(UTC-04:00)
Language:

Cosmos 1408 Rocket - Orbit

View from above orbital plane
View from above orbital plane
View from above satellite
View from above satellite

Ground track
Ground track

The orbit data is extracted from the following two-line orbital elements,

1 13553U 82092B   14292.79967602  .00000699  00000-0  81591-4 0   478
2 13553 082.5706 058.8800 0021639 018.3193 142.9047 14.83627533732979
Epoch (UTC): 19 October 2014 19:11:32
Eccentricity: 0.0021639
inclination: 82.5706°
perigee height: 603 km
apogee height: 633 km
right ascension of ascending node: 58.8800°
argument of perigee: 18.3193°
revolutions per day: 14.83627533
mean anomaly at epoch: 142.9047°
orbit number at epoch: 73297

The dashed part of the orbit path shows where the satellite is in the earth's shadow,  

DLR